Weather History for KIXD - March, 2014

Change the Weather History Date:

Monday, March 3, 2014

  Actual Average Record
Temperature  
Mean Temperature 6 °F -  
Max Temperature 18 °F 44 °F 64 °F (2011)
Min Temperature -7 °F 25 °F -7 °F (2014)
Degree Days  
Heating Degree Days 60    
Moisture  
Dew Point -5 °F    
Average Humidity 55    
Maximum Humidity 72    
Minimum Humidity 39    
Precipitation  
Precipitation 0.00 in - - ()
Sea Level Pressure  
Sea Level Pressure 30.49 in    
Wind  
Wind Speed 10 mph (East)    
Max Wind Speed 17 mph    
Max Gust Speed -    
Visibility 10 miles    
Events Snow    
Averages and records for this station are not official NWS values.
T = Trace of Precipitation, MM = Missing Value Source: NWS Daily Summary

Daily Weather History Graph

Daily Weather History Graph

Search for Another Location

Airport or City:

Trip Planner

Search our weather history database for the weather conditions in past years. The results will help you decide how hot, cold, wet, or windy it might be!

Date:

Astronomy

Mar. 03, 2014 Rise Set
Actual Time 6:48 AM CST 6:14 PM CST
Civil Twilight 6:22 AM CST 6:41 PM CST
Nautical Twilight 5:51 AM CST 7:12 PM CST
Astronomical Twilight 5:20 AM CST 7:42 PM CST
Moon 7:59 AM CST (3/3) 9:16 PM CST (3/3)
Length of Visible Light 12h 18m
Length of Day
11h 25m
Waxing Crescent, 8% of the Moon is Illuminated
Mar 3
Waxing Crescent
Mar 8
First Quarter
Mar 16
Full
Mar 23
Last Quarter
Mar 30
New

Hourly Weather History & Observations

Time (CST) Temp. Windchill Dew Point Humidity Pressure Visibility Wind Dir Wind Speed Gust Speed Precip Events Conditions
12:53 AM 1.0 °F -19.3 °F -11.9 °F 55% 30.59 in 10.0 mi North 17.3 mph - N/A   Clear
1:53 AM -0.0 °F -20.7 °F -11.9 °F 57% 30.59 in 10.0 mi North 17.3 mph - N/A   Clear
2:53 AM -0.9 °F -21.2 °F -13.0 °F 57% 30.58 in 10.0 mi North 16.1 mph - N/A   Clear
3:53 AM -2.9 °F -19.8 °F -13.0 °F 62% 30.59 in 10.0 mi North 10.4 mph - N/A   Clear
4:53 AM -4.0 °F -20.2 °F -13.0 °F 65% 30.59 in 10.0 mi North 9.2 mph - N/A   Clear
5:53 AM -6.0 °F -20.1 °F -14.1 °F 68% 30.60 in 10.0 mi North 6.9 mph - N/A   Clear
6:53 AM -7.1 °F -19.9 °F -14.1 °F 72% 30.59 in 10.0 mi North 5.8 mph - N/A   Clear
7:53 AM -2.0 °F -15.4 °F -11.9 °F 63% 30.58 in 10.0 mi NNE 6.9 mph - N/A   Clear
8:53 AM 1.9 °F -11.8 °F -9.9 °F 58% 30.58 in 10.0 mi ENE 8.1 mph - N/A   Clear
9:53 AM 5.0 °F -2.1 °F -9.9 °F 50% 30.58 in 10.0 mi East 3.5 mph - 0.00 in Snow Light Snow
10:53 AM 7.0 °F 0.1 °F -9.0 °F 48% 30.60 in 9.0 mi Variable 3.5 mph - 0.00 in   Clear
11:53 AM 10.0 °F 3.6 °F -8.0 °F 44% 30.58 in 10.0 mi Variable 3.5 mph - N/A   Clear
12:53 PM 10.9 °F 2.9 °F -7.1 °F 44% 30.54 in 10.0 mi SE 4.6 mph - N/A   Clear
1:53 PM 16.0 °F 7.4 °F -5.1 °F 39% 30.50 in 10.0 mi ESE 5.8 mph - N/A   Clear
2:53 PM 17.1 °F 10.0 °F -4.0 °F 39% 30.46 in 10.0 mi East 4.6 mph - N/A   Clear
3:53 PM 18.0 °F 11.1 °F -2.9 °F 40% 30.43 in 10.0 mi ESE 4.6 mph - N/A   Clear
4:53 PM 18.0 °F 9.8 °F -0.0 °F 45% 30.42 in 10.0 mi ESE 5.8 mph - N/A   Clear
5:53 PM 18.0 °F 11.1 °F 1.9 °F 50% 30.40 in 10.0 mi SE 4.6 mph - N/A   Clear
6:53 PM 17.1 °F 7.6 °F 1.9 °F 52% 30.38 in 10.0 mi SE 6.9 mph - N/A   Clear
7:53 PM 18.0 °F 7.7 °F 6.1 °F 60% 30.35 in 10.0 mi SE 8.1 mph - N/A   Clear
8:53 PM 16.0 °F 6.3 °F 7.0 °F 68% 30.35 in 10.0 mi SSE 6.9 mph - N/A   Clear
9:53 PM 17.1 °F 7.6 °F 7.0 °F 65% 30.35 in 10.0 mi South 6.9 mph - N/A   Clear
10:53 PM 17.1 °F 5.0 °F 6.1 °F 62% 30.32 in 10.0 mi South 10.4 mph - N/A   Clear
11:53 PM 15.1 °F 6.4 °F 5.0 °F 64% 30.32 in 10.0 mi SSW 5.8 mph - N/A   Clear